Regional Weather Roundup
Issued by NWS

Home | Current Version | Previous Version | Graphics & Text | Print | Product List | Glossary On
Versions: 1 2 3 4 5 6 7 8 9 10 11 12 13 14 15 16 17 18 19 20 21 22 23 24 25 26 27 28 29 30 31 32 33 34 35 36 37 38 39 40 41 42 43 44 45 46 47 48 49 50
000
ASUS43 KOAX 182110
RWRNE

WEATHER ROUNDUP FOR NEBRASKA
NATIONAL WEATHER SERVICE OMAHA NE
400 PM CDT FRI AUG 18 2017

NOTES: SATELLITE DATA IS BEING USED TO AUGMENT CLOUD COVER ABOVE
       12000 FEET.
       "FAIR" INDICATES FEW OR NO CLOUDS BELOW 12,000 FEET WITH NO
       SIGNIFICANT WEATHER AND/OR OBSTRUCTIONS TO VISIBILITY.


NEZ001>004-019>022-054>056-182200-
NEBRASKA PANHANDLE

CITY           SKY/WX    TMP DP  RH WIND       PRES   REMARKS
SCOTTSBLUFF    SUNNY     88  38  17 N7        30.08F
ALLIANCE       SUNNY     85  44  23 W10       30.07F
CHADRON        SUNNY     89  38  16 NW6       30.02F
GORDON         FAIR      85  47  26 N7        30.03F
KIMBALL        SUNNY     85  47  26 CALM      30.15F
SIDNEY         SUNNY     88  38  17 W9        30.12F
$$

NEZ057>060-069>072-079>082-182200-
SOUTHWEST NEBRASKA

CITY           SKY/WX    TMP DP  RH WIND       PRES   REMARKS
NORTH PLATTE   SUNNY     87  52  29 NW7       30.00F
IMPERIAL       SUNNY     86  44  23 VRB5      30.06F
LEXINGTON      SUNNY     86  55  34 SW3       29.99F
MCCOOK         SUNNY     88  56  33 E9        30.01F
OGALLALA       SUNNY     87  46  24 CALM      30.05F
$$

NEZ005>010-023>029-035>040-094-182200-
NORTH CENTRAL NEBRASKA

CITY           SKY/WX    TMP DP  RH WIND       PRES   REMARKS
VALENTINE      SUNNY     87  48  25 N13       29.99F
AINSWORTH      SUNNY     81  59  47 N14       29.99S
BROKEN BOW     SUNNY     90  47  22 NW13      29.98F
O`NEILL        SUNNY     82  60  47 NW9       29.96R
ORD            SUNNY     86  55  34 NW12      29.93F
THEDFORD       PTSUNNY   88  49  26 NW13G22   30.01S
$$

NEZ041-046>049-061>064-073>077-083>087-182200-
SOUTH CENTRAL NEBRASKA

CITY           SKY/WX    TMP DP  RH WIND       PRES   REMARKS
GRAND ISLAND   SUNNY     87  62  43 VRB5      29.96F
AURORA         SUNNY     83  64  51 CALM      29.96S
HASTINGS       SUNNY     85  62  46 NE5       29.98F
HEBRON         SUNNY     86  65  48 N7        29.95S
HOLDREGE       SUNNY     82  60  45 NE3       29.99F
KEARNEY        SUNNY     85  58  39 VRB3      29.98F
YORK           SUNNY     82  68  61 CALM      29.95S
$$

NEZ011>018-030>034-042>045-182200-
NORTHEAST NEBRASKA

CITY           SKY/WX    TMP DP  RH WIND       PRES   REMARKS
NORFOLK        SUNNY     83  62  49 W7        29.90F
ALBION         SUNNY     86  63  46 W6        29.93F
BLAIR          SUNNY     83  67  59 W7        29.91F
COLUMBUS       SUNNY     82  67  60 VRB5      29.93F
FREMONT        SUNNY     82  64  53 SW5       29.92S
TEKAMAH        SUNNY     83  64  52 W7        29.89F
WAYNE          SUNNY     81  68  64 SW6       29.90F
$$

NEZ050>053-065>068-078-088>093-182200-
SOUTHEAST NEBRASKA

CITY           SKY/WX    TMP DP  RH WIND       PRES   REMARKS
LINCOLN        SUNNY     86  62  44 NW6       29.93S
OMAHA EPPLEY   MOSUNNY   88  62  41 NW10      29.89F
BEATRICE       SUNNY     87  66  48 N5        29.93F
FALLS CITY     PTSUNNY   86  66  51 N7        29.90S
NEBRASKA CITY  CLOUDY    84  65  52 W3        29.92S
PLATTSMOUTH    MOSUNNY   84  62  46 NW7       29.91S
$$

NEZ044-045-051>053-067-182200-
OMAHA AREA

CITY           SKY/WX    TMP DP  RH WIND       PRES   REMARKS
OMAHA EPPLEY   MOSUNNY   88  62  41 NW10      29.89F
BLAIR          SUNNY     83  67  59 W7        29.91F
FREMONT        SUNNY     82  64  53 SW5       29.92S
MILLARD        SUNNY     85  65  50 NW7       29.90F
OFFUTT AFB     SUNNY     87  60  39 W9        29.89F
PLATTSMOUTH    MOSUNNY   84  62  46 NW7       29.91S
WAHOO          FAIR      82  65  56 SW5       29.92S
$$




USA.gov is the U.S. government's official web portal to all federal, state and local government web resources and services.